Akron, New York, United States (14001)
Lat: 43.02N, Lon: 78.5W
Wx Zone: NYZ010
Local Info
Past Weather Observations for Today

NOTE: This archive is for the closest National Weather Service station to Akron. Information may differ from the station used for current weather conditions.

Click here for Long-term Archive

Time Weather Temperature Dewpoint Humidity Pressure Winds Precip Visibility
18:23
Overcast
Light Snow
3°F / -16°C -2°F / -19°C 78% 30.36 in
(1028 mb)
WNW 15 mph
(WNW 24 kph)
0.01 in
(0.25 mm)
2SM
17:54
Overcast
Light Snow
3°F / -16°C -4°F / -20°C 72% 30.33 in
(1027 mb)
NW 11.5 mph
(NW 19 kph)
0.00 in
(0.00 mm)
3SM
17:37
Overcast
Light Snow
3°F / -16°C -6°F / -21°C 66% 30.33 in
(1027 mb)
NW 13.8 mph
(NW 22 kph)
0.00 in
(0.00 mm)
4SM
17:13
Overcast
Light Snow
3°F / -16°C -6°F / -21°C 66% 30.33 in
(1027 mb)
NW 13.8 mph
(NW 22 kph)
0.00 in
(0.00 mm)
2SM
17:04
Overcast
Light Snow
3°F / -16°C -6°F / -21°C 66% 30.33 in
(1027 mb)
NW 16.1 mph
(NW 26 kph)
0.00 in
(0.00 mm)
1 1/2SM
16:54
Overcast
Light Snow
3°F / -16°C -6°F / -21°C 66% 30.33 in
(1027 mb)
NW 11.5 mph
(NW 19 kph)
0.00 in
(0.00 mm)
2SM
16:46
Overcast
Light Snow
3°F / -16°C -4°F / -20°C 72% 30.33 in
(1027 mb)
NW 12.7 mph
(NW 20 kph)
0.00 in
(0.00 mm)
1 3/4SM
16:31
Overcast
Light Snow
1°F / -17°C -4°F / -20°C 78% 30.33 in
(1027 mb)
NW 8.1 mph
(NW 13 kph)
0.00 in
(0.00 mm)
1/2SM
16:08
Overcast
Light Snow
3°F / -16°C -6°F / -21°C 66% 30.33 in
(1027 mb)
W 10.4 mph
(W 17 kph)
0.00 in
(0.00 mm)
2 1/2SM
15:54
Mostly Cloudy
Light Snow
1°F / -17°C -8°F / -22°C 65% 30.3 in
(1026 mb)
W 10.4 mph
(W 17 kph)
0.00 in
(0.00 mm)
8SM
14:54
Mostly Cloudy
Light Snow
1°F / -17°C -11°F / -24°C 55% 30.3 in
(1026 mb)
W 15 mph
(W 24 kph)
0.00 in
(0.00 mm)
9SM
13:54
Mostly Cloudy
1°F / -17°C -15°F / -26°C 46% 30.3 in
(1026 mb)
WNW 13.8 mph
(WNW 22 kph)
0.00 in
(0.00 mm)
10SM
13:36
Mostly Cloudy
°F / -18°C -13°F / -25°C 54% 30.33 in
(1027 mb)
NW 11.5 mph
(NW 19 kph)
0.00 in
(0.00 mm)
9SM
13:07
Mostly Cloudy
Light Snow
°F / -18°C -11°F / -24°C 60% 30.33 in
(1027 mb)
W 9.2 mph
(W 15 kph)
0.00 in
(0.00 mm)
5SM
12:54
Overcast
Light Snow
°F / -18°C -9°F / -23°C 65% 30.33 in
(1027 mb)
NW 9.2 mph
(NW 15 kph)
0.00 in
(0.00 mm)
2SM
12:42
Overcast
Light Snow
°F / -18°C -11°F / -24°C 60% 30.33 in
(1027 mb)
NW 9.2 mph
(NW 15 kph)
0.00 in
(0.00 mm)
2SM
11:54
Mostly Cloudy
Light Snow
-2°F / -19°C -11°F / -24°C 65% 30.33 in
(1027 mb)
NW 15 mph
(NW 24 kph)
0.00 in
(0.00 mm)
4SM
10:54
Mostly Cloudy
-2°F / -19°C -15°F / -26°C 54% 30.3 in
(1026 mb)
WNW 16.1 mph
(WNW 26 kph)
0.00 in
(0.00 mm)
8SM
10:44
Mostly Cloudy
Light Snow
-2°F / -19°C -13°F / -25°C 59% 30.3 in
(1026 mb)
NW 15 mph
(NW 24 kph)
0.00 in
(0.00 mm)
7SM
10:32
Mostly Cloudy
Light Snow
-2°F / -19°C -11°F / -24°C 65% 30.3 in
(1026 mb)
NW 16.1 mph
(NW 26 kph)
0.00 in
(0.00 mm)
2SM
10:11
Obscured
Snow
-2°F / -19°C -11°F / -24°C 65% 30.3 in
(1026 mb)
NW 13.8 mph
(NW 22 kph)
0.00 in
(0.00 mm)
1/2SM
10:02
Overcast
Light Snow
-2°F / -19°C -11°F / -24°C 65% 30.3 in
(1026 mb)
NNW 12.7 mph
(NNW 20 kph)
0.00 in
(0.00 mm)
1 1/2SM
09:54
Mostly Cloudy
Light Snow
-2°F / -19°C -11°F / -24°C 65% 30.3 in
(1026 mb)
NW 16.1 mph
(NW 26 kph)
0.00 in
(0.00 mm)
1SM
09:41
Mostly Cloudy
Light Snow
-2°F / -19°C -11°F / -24°C 65% 30.3 in
(1026 mb)
NW 13.8 mph
(NW 22 kph)
0.00 in
(0.00 mm)
2SM
08:54
Mostly Cloudy
Blowing Snow
-4°F / -20°C -13°F / -25°C 65% 30.3 in
(1026 mb)
NW 17.3 mph
(NW 28 kph)
0.00 in
(0.00 mm)
4SM
08:34
Mostly Cloudy
Light Snow
-4°F / -20°C -11°F / -24°C 71% 30.3 in
(1026 mb)
NNW 15 mph
(NNW 24 kph)
0.00 in
(0.00 mm)
4SM
08:16
Mostly Cloudy
Light Snow
-4°F / -20°C -11°F / -24°C 71% 30.27 in
(1025 mb)
NNW 15 mph
(NNW 24 kph)
0.00 in
(0.00 mm)
2SM
07:58
Obscured
Snow
-4°F / -20°C -9°F / -23°C 77% 30.27 in
(1025 mb)
NNW 15 mph
(NNW 24 kph)
0.00 in
(0.00 mm)
1/2SM
07:54
Mostly Cloudy
Light Snow
-4°F / -20°C -11°F / -24°C 71% 30.27 in
(1025 mb)
NNW 17.3 mph
(NNW 28 kph)
0.00 in
(0.00 mm)
1 1/2SM
07:39
Mostly Cloudy
Light Snow
-2°F / -19°C -9°F / -23°C 71% 30.24 in
(1024 mb)
NNW 13.8 mph
(NNW 22 kph)
0.00 in
(0.00 mm)
2SM
07:15
Overcast
Light Snow
-2°F / -19°C -9°F / -23°C 71% 30.24 in
(1024 mb)
NNW 13.8 mph
(NNW 22 kph)
0.00 in
(0.00 mm)
1 1/2SM
06:54
Obscured
Light Snow
°F / -18°C -8°F / -22°C 71% 30.21 in
(1023 mb)
NNW 11.5 mph
(NNW 19 kph)
- 1SM
06:45
Overcast
Light Snow
-2°F / -19°C -8°F / -22°C 77% 30.21 in
(1023 mb)
NNW 13.8 mph
(NNW 22 kph)
0.00 in
(0.00 mm)
1SM
06:32
Overcast
Light Snow
°F / -18°C -9°F / -23°C 65% 30.21 in
(1023 mb)
NNW 17.3 mph
(NNW 28 kph)
0.00 in
(0.00 mm)
2 1/2SM
06:24
Overcast
Light Snow
°F / -18°C -8°F / -22°C 71% 30.21 in
(1023 mb)
NW 16.1 mph
(NW 26 kph)
0.00 in
(0.00 mm)
4SM
06:01
Overcast
Blowing Snow
°F / -18°C -8°F / -22°C 71% 30.18 in
(1022 mb)
NNW 17.3 mph
(NNW 28 kph)
0.00 in
(0.00 mm)
4SM
05:54
Overcast
Light Snow
°F / -18°C -8°F / -22°C 71% 30.18 in
(1022 mb)
NNW 18.4 mph
(NNW 30 kph)
0.00 in
(0.00 mm)
2 1/2SM
04:54
Overcast
Light Snow
1°F / -17°C -2°F / -19°C 85% 30.12 in
(1020 mb)
NNW 15 mph
(NNW 24 kph)
0.00 in
(0.00 mm)
1 3/4SM
04:47
Overcast
Light Snow
3°F / -16°C -2°F / -19°C 78% 30.12 in
(1020 mb)
NNW 17.3 mph
(NNW 28 kph)
0.00 in
(0.00 mm)
2SM
03:54
Overcast
Light Snow
5°F / -15°C -2°F / -19°C 72% 30.09 in
(1019 mb)
NNW 16.1 mph
(NNW 26 kph)
0.00 in
(0.00 mm)
3SM
03:35
Overcast
Light Snow
7°F / -14°C °F / -18°C 72% 30.06 in
(1018 mb)
NNW 12.7 mph
(NNW 20 kph)
0.00 in
(0.00 mm)
2 1/2SM
03:18
Overcast
Light Snow
7°F / -14°C 1°F / -17°C 78% 30.06 in
(1018 mb)
NNW 15 mph
(NNW 24 kph)
0.00 in
(0.00 mm)
3SM
03:04
Overcast
Light Snow
9°F / -13°C 1°F / -17°C 72% 30.06 in
(1018 mb)
NNW 20.7 mph
(NNW 33 kph)
0.00 in
(0.00 mm)
1 3/4SM
02:54
Mostly Cloudy
Light Snow
9°F / -13°C °F / -18°C 66% 30.06 in
(1018 mb)
NNW 15 mph
(NNW 24 kph)
0.00 in
(0.00 mm)
4SM
02:43
Mostly Cloudy
9°F / -13°C °F / -18°C 66% 30.04 in
(1017 mb)
NNW 12.7 mph
(NNW 20 kph)
0.00 in
(0.00 mm)
10SM
02:20
Overcast
Light Snow
9°F / -13°C 1°F / -17°C 72% 30.04 in
(1017 mb)
NNW 15 mph
(NNW 24 kph)
0.00 in
(0.00 mm)
4SM
02:16
Overcast
Light Snow
9°F / -13°C 3°F / -16°C 78% 30.04 in
(1017 mb)
NNW 15 mph
(NNW 24 kph)
0.00 in
(0.00 mm)
3SM
02:05
Overcast
Light Snow
10°F / -12°C 3°F / -16°C 72% 30.04 in
(1017 mb)
NNW 15 mph
(NNW 24 kph)
0.00 in
(0.00 mm)
2SM
01:54
Obscured
Light Snow
10°F / -12°C 7°F / -14°C 85% 30.01 in
(1016 mb)
NW 18.4 mph
(NW 30 kph)
0.00 in
(0.00 mm)
1SM
01:39
Overcast
Snow
12°F / -11°C 9°F / -13°C 85% 30.01 in
(1016 mb)
NNW 12.7 mph
(NNW 20 kph)
0.00 in
(0.00 mm)
1/2SM
01:30
Overcast
Light Snow
12°F / -11°C 7°F / -14°C 79% 30.01 in
(1016 mb)
NNW 15 mph
(NNW 24 kph)
0.00 in
(0.00 mm)
3/4SM
00:54
Overcast
14°F / -10°C 1°F / -17°C 57% 29.98 in
(1015 mb)
NW 17.3 mph
(NW 28 kph)
- 9SM
00:07
Mostly Cloudy
Light Snow
14°F / -10°C °F / -18°C 52% 29.95 in
(1014 mb)
NW 16.1 mph
(NW 26 kph)
0.00 in
(0.00 mm)
6SM
Time Weather Temperature Dewpoint Humidity Pressure Winds Precip Visibility


Weather for websites

WeatherForYou.com, LLC is not responsible for any damages or problems caused by this service. Current weather conditions are obtained from the closest station including government and personal stations which may have varying degrees of accuracy. Weather forecasts are derived from the NOAA NDFD. Like all things, this site belongs to Jesus Christ... He just trusts us to maintain it. If you have any questions or comments email webmaster@weatherforyou.com

Copyright © 2016, WeatherForYou.com LLC. All rights reserved.